Location: Cieszkowy
(50.3290°N, 20.5336°E)
Time: 12:06:01
(UTC+00:00)

Cosmos 1869 - Pass Details

Date: 15 June 2024
Orbit: 490 x 527 km, 82.5° (Epoch: 15 July)

Event Time Altitude Azimuth Distance (km) Brightness Sun altitude
Rises 00:03:14 0° 350° (N) 2,589 7.9 -14.0°
Reaches altitude 10° 00:05:21 10° 351° (N) 1,698 6.8 -13.9°
Maximum altitude 00:09:04 82° 78° (ENE) 503 3.1 -13.7°
Enters shadow 00:11:41 19° 167° (SSE) 1,243 4.6 -13.5°
